Weather Service Report


881 
ASUS41 KRLX 281410
RWRRLX
West Virginia Regional Weather Roundup
National Weather Service Charleston WV
900 AM EST WED JAN 28 2015

Note: "fair" indicates few or no clouds below 12,000 feet with no
significant weather and/or obstructions to visibility.

WVZ003-281500-
Northern Panhandle of West Virginia
  
CITY           SKY/WX    TMP DP  RH WIND       PRES   REMARKS
WHEELING       CLOUDY    13   9  84 W9        30.32R WCI   1          
$$

WVZ009-281500-
Northwest West Virginia
  
CITY           SKY/WX    TMP DP  RH WIND       PRES   REMARKS
PARKERSBURG    PTSUNNY   17  11  77 NW3       30.40R                  
$$

WVZ006-281500-
Western West Virginia
  
CITY           SKY/WX    TMP DP  RH WIND       PRES   REMARKS
HUNTINGTON     SUNNY     18  15  88 CALM      30.38R                  
$$

WVZ015-281500-
West Central West Virginia
  
CITY           SKY/WX    TMP DP  RH WIND       PRES   REMARKS
CHARLESTON     MOSUNNY   19  14  81 CALM      30.37R                  
$$

WVZ022-031-281500-
North Central West Virginia
  
CITY           SKY/WX    TMP DP  RH WIND       PRES   REMARKS
CLARKSBURG     LGT SNOW  17  11  77 W5        30.33R WCI  10          
MORGANTOWN     CLOUDY    16   8  71 W3        30.32R HAZE             
$$

WVZ025-035-042-045-281500-
Southern West Virginia
  
CITY           SKY/WX    TMP DP  RH WIND       PRES   REMARKS
BECKLEY        LGT SNOW  17  13  84 NW6       30.23R FOG     WCI   9  
LOGAN          CLOUDY    19  16  86 CALM      30.31R                  
BLUEFIELD      CLOUDY    18  12  77 W6        30.20R HAZE    WCI  10  
LEWISBURG      SUNNY     21  15  77 W6        30.21R                  
$$

WVZ047-281500-
Northern Mountains of West Virginia
  
CITY           SKY/WX    TMP DP  RH WIND       PRES   REMARKS
ELKINS         LGT SNOW  17  11  77 CALM      30.26R                  
$$

WVZ052-281500-
Eastern Panhandle of West Virginia
  
CITY           SKY/WX    TMP DP  RH WIND       PRES   REMARKS
MARTINSBURG    SUNNY     23   6  48 NW7       30.23R                  
PETERSBURG     SUNNY     13  11  91 CALM      30.26R FOG              
$$

Return to Home page


Western Regional Climate Center, wrcc@dri.edu